TimeCDT,TemperatureF,Dew PointF,Humidity,Sea Level PressureIn,VisibilityMPH,Wind Direction,Wind SpeedMPH,Gust SpeedMPH,PrecipitationIn,Events,Conditions,WindDirDegrees,DateUTC
12:12 AM,51.8,46.4,82,30.25,10.0,NNE,4.6,-,N/A,,Clear,20,2013-09-13 05:12:00
12:32 AM,51.8,46.4,82,30.25,10.0,NNE,3.5,-,N/A,,Clear,20,2013-09-13 05:32:00
12:53 AM,51.8,46.4,82,30.24,10.0,NNE,3.5,-,N/A,,Clear,30,2013-09-13 05:53:00
1:12 AM,50.0,46.4,87,30.25,10.0,NNE,4.6,-,N/A,,Clear,30,2013-09-13 06:12:00
1:32 AM,48.2,44.6,87,30.25,10.0,NE,4.6,-,N/A,,Clear,40,2013-09-13 06:32:00
1:53 AM,48.2,44.6,87,30.25,10.0,NNE,3.5,-,N/A,,Clear,30,2013-09-13 06:53:00
2:12 AM,48.2,44.6,87,30.25,10.0,Calm,Calm,-,N/A,,Clear,0,2013-09-13 07:12:00
2:32 AM,48.2,44.6,87,30.25,10.0,Calm,Calm,-,N/A,,Clear,0,2013-09-13 07:32:00
2:53 AM,48.2,44.6,87,30.25,10.0,Calm,Calm,-,N/A,,Clear,0,2013-09-13 07:53:00
3:12 AM,46.4,41.0,81,30.25,10.0,Calm,Calm,-,N/A,,Clear,0,2013-09-13 08:12:00
3:32 AM,46.4,42.8,87,30.25,10.0,Calm,Calm,-,N/A,,Clear,0,2013-09-13 08:32:00
3:53 AM,46.4,42.8,87,30.25,10.0,Calm,Calm,-,N/A,,Clear,0,2013-09-13 08:53:00
4:12 AM,44.6,42.8,93,30.25,10.0,Calm,Calm,-,N/A,,Clear,0,2013-09-13 09:12:00
4:32 AM,44.6,42.8,93,30.25,10.0,Calm,Calm,-,N/A,,Clear,0,2013-09-13 09:32:00
4:53 AM,44.6,42.8,93,30.25,10.0,Calm,Calm,-,N/A,,Clear,0,2013-09-13 09:53:00
5:12 AM,44.6,42.8,93,30.25,10.0,Calm,Calm,-,N/A,,Clear,0,2013-09-13 10:12:00
5:32 AM,42.8,39.2,87,30.26,10.0,Calm,Calm,-,N/A,,Clear,0,2013-09-13 10:32:00
5:53 AM,42.8,39.2,87,30.26,10.0,Calm,Calm,-,N/A,,Clear,0,2013-09-13 10:53:00
6:12 AM,42.8,39.2,87,30.26,10.0,Calm,Calm,-,N/A,,Clear,0,2013-09-13 11:12:00
6:32 AM,42.8,39.2,87,30.26,10.0,Calm,Calm,-,N/A,,Clear,0,2013-09-13 11:32:00
6:53 AM,41.0,37.4,87,30.26,10.0,Calm,Calm,-,N/A,,Clear,0,2013-09-13 11:53:00
7:12 AM,42.8,41.0,93,30.27,10.0,Calm,Calm,-,N/A,,Clear,0,2013-09-13 12:12:00
7:32 AM,44.6,39.2,81,30.27,10.0,Calm,Calm,-,N/A,,Clear,0,2013-09-13 12:32:00
7:53 AM,46.4,42.8,87,30.27,10.0,Calm,Calm,-,N/A,,Clear,0,2013-09-13 12:53:00
8:12 AM,48.2,44.6,87,30.27,10.0,Calm,Calm,-,N/A,,Clear,0,2013-09-13 13:12:00
8:32 AM,51.8,46.4,82,30.27,10.0,Calm,Calm,-,N/A,,Clear,0,2013-09-13 13:32:00
8:53 AM,57.2,48.2,72,30.27,10.0,Calm,Calm,-,N/A,,Clear,0,2013-09-13 13:53:00
9:12 AM,59.0,46.4,63,30.27,10.0,Calm,Calm,-,N/A,,Clear,0,2013-09-13 14:12:00
9:32 AM,60.8,46.4,59,30.28,10.0,SE,3.5,-,N/A,,Clear,130,2013-09-13 14:32:00
9:53 AM,62.6,44.6,52,30.27,10.0,ESE,5.8,-,N/A,,Clear,120,2013-09-13 14:53:00
10:12 AM,62.6,44.6,52,30.28,10.0,ESE,4.6,-,N/A,,Clear,110,2013-09-13 15:12:00
10:32 AM,64.4,44.6,49,30.27,10.0,East,5.8,-,N/A,,Clear,100,2013-09-13 15:32:00
10:53 AM,64.4,42.8,45,30.27,10.0,ESE,4.6,-,N/A,,Clear,120,2013-09-13 15:53:00
11:12 AM,66.2,42.8,43,30.27,10.0,East,3.5,-,N/A,,Clear,80,2013-09-13 16:12:00
11:32 AM,66.2,41.0,40,30.26,10.0,East,4.6,-,N/A,,Clear,100,2013-09-13 16:32:00
11:53 AM,66.2,42.8,43,30.26,10.0,ESE,3.5,-,N/A,,Clear,120,2013-09-13 16:53:00
12:12 PM,66.2,42.8,43,30.25,10.0,Calm,Calm,-,N/A,,Clear,0,2013-09-13 17:12:00
12:32 PM,66.2,42.8,43,30.24,10.0,ENE,4.6,-,N/A,,Clear,70,2013-09-13 17:32:00
12:53 PM,68.0,42.8,40,30.23,10.0,Calm,Calm,-,N/A,,Clear,0,2013-09-13 17:53:00
1:12 PM,69.8,42.8,38,30.22,10.0,NE,5.8,-,N/A,,Clear,50,2013-09-13 18:12:00
1:32 PM,69.8,42.8,38,30.22,10.0,Calm,Calm,-,N/A,,Clear,0,2013-09-13 18:32:00
1:53 PM,69.8,42.8,38,30.21,10.0,Calm,Calm,-,N/A,,Clear,0,2013-09-13 18:53:00
2:12 PM,69.8,41.0,35,30.20,10.0,SE,4.6,-,N/A,,Clear,130,2013-09-13 19:12:00
2:32 PM,71.6,41.0,33,30.19,10.0,East,4.6,-,N/A,,Clear,100,2013-09-13 19:32:00
2:53 PM,69.8,41.0,35,30.18,10.0,Calm,Calm,-,N/A,,Clear,0,2013-09-13 19:53:00
3:12 PM,71.6,41.0,33,30.18,10.0,SE,6.9,-,N/A,,Clear,140,2013-09-13 20:12:00
3:32 PM,71.6,41.0,33,30.17,10.0,ESE,6.9,-,N/A,,Clear,110,2013-09-13 20:32:00
3:53 PM,71.6,41.0,33,30.16,10.0,Calm,Calm,-,N/A,,Clear,0,2013-09-13 20:53:00
4:12 PM,71.6,41.0,33,30.16,10.0,South,5.8,-,N/A,,Clear,180,2013-09-13 21:12:00
4:32 PM,71.6,41.0,33,30.16,10.0,SE,5.8,-,N/A,,Clear,130,2013-09-13 21:32:00
4:53 PM,71.6,41.0,33,30.15,10.0,Calm,Calm,-,N/A,,Clear,0,2013-09-13 21:53:00
5:12 PM,71.6,41.0,33,30.15,10.0,Calm,Calm,-,N/A,,Clear,0,2013-09-13 22:12:00
5:32 PM,71.6,41.0,33,30.14,10.0,South,3.5,-,N/A,,Clear,170,2013-09-13 22:32:00
5:53 PM,69.8,41.0,35,30.14,10.0,SE,4.6,-,N/A,,Clear,130,2013-09-13 22:53:00
6:12 PM,69.8,42.8,38,30.13,10.0,ESE,3.5,-,N/A,,Clear,110,2013-09-13 23:12:00
6:32 PM,69.8,42.8,38,30.13,10.0,ESE,4.6,-,N/A,,Clear,110,2013-09-13 23:32:00
6:53 PM,68.0,44.6,43,30.12,10.0,ESE,4.6,-,N/A,,Clear,120,2013-09-13 23:53:00
7:12 PM,66.2,44.6,46,30.12,10.0,ESE,3.5,-,N/A,,Clear,110,2013-09-14 00:12:00
7:32 PM,62.6,46.4,55,30.11,10.0,ESE,4.6,-,N/A,,Clear,120,2013-09-14 00:32:00
7:53 PM,60.8,46.4,59,30.11,10.0,ESE,4.6,-,N/A,,Clear,110,2013-09-14 00:53:00
8:12 PM,60.8,46.4,59,30.11,10.0,ESE,3.5,-,N/A,,Clear,120,2013-09-14 01:12:00
8:33 PM,57.2,46.4,67,30.11,10.0,ESE,5.8,-,N/A,,Clear,120,2013-09-14 01:33:00
8:52 PM,53.6,46.4,77,30.11,10.0,Calm,Calm,-,N/A,,Clear,0,2013-09-14 01:52:00
9:12 PM,55.4,46.4,72,30.11,10.0,Calm,Calm,-,N/A,,Clear,0,2013-09-14 02:12:00
9:32 PM,53.6,46.4,77,30.11,10.0,Calm,Calm,-,N/A,,Clear,0,2013-09-14 02:32:00
9:52 PM,53.6,44.6,72,30.11,10.0,SE,3.5,-,N/A,,Clear,130,2013-09-14 02:52:00
10:13 PM,53.6,44.6,72,30.10,10.0,SE,3.5,-,N/A,,Clear,140,2013-09-14 03:13:00
10:32 PM,53.6,44.6,72,30.10,10.0,SE,3.5,-,N/A,,Clear,140,2013-09-14 03:32:00
10:52 PM,53.6,44.6,72,30.10,10.0,SE,3.5,-,N/A,,Clear,130,2013-09-14 03:52:00
11:12 PM,53.6,44.6,72,30.10,10.0,SE,3.5,-,N/A,,Clear,140,2013-09-14 04:12:00
11:32 PM,53.6,44.6,72,30.09,10.0,SE,4.6,-,N/A,,Clear,140,2013-09-14 04:32:00
11:53 PM,53.6,44.6,72,30.09,10.0,SSE,5.8,-,N/A,,Clear,150,2013-09-14 04:53:00